QPF
0.00 0.00 0.00 0.00 0.00 0.00 0.00 0.00 0.00 0.00 0.00 0.00 0.00 0.00 0.00 0.00 0.00 0.00 0.00 0.00 0.00 0.00 0.00 0.00 0.00 0.00 0.00 0.00 0.00 0.00 0.00 0.00 0.00 0.00 0.00 0.00 0.00 0.00 0.00 0.00 0.00 0.00
0.00 0.00 0.00 0.00 0.00 0.00 0.00 0.00 0.00 0.00 0.00 0.00 0.00 0.00 0.00 0.00 0.00 0.00 0.00 0.00 0.00 0.00 0.00 0.00 0.00 0.00 0.00 0.00 0.00 0.00 0.00 0.00 0.00 0.00 0.00 0.00 0.00 0.00 0.00 0.00 0.00 0.00
0.00 0.00 0.00 0.00 0.00 0.00 0.00 0.00 0.00 0.00 0.00 0.00 0.00 0.00 0.00 0.00 0.00 0.00 0.00 0.00 0.00 0.00 0.00 0.00 0.00 0.00 0.00 0.00 0.00 0.00 0.00 0.00 0.00 0.00 0.00 0.00 0.00 0.00 0.00 0.00 0.00 0.00
0.00 0.00 0.00 0.00 0.00 0.00 0.00 0.00 0.00 0.00 0.00 0.00 0.00 0.00 0.00 0.00 0.00 0.00 0.00 0.00 0.00 0.00 0.00 0.00 0.00 0.00 0.00 0.00 0.00 0.00 0.00 0.00 0.00 0.00 0.00 0.00 0.00 0.00 0.00 0.00 0.00 0.00
0.00 0.00 0.00 0.00 0.00 0.00 0.00 0.00 0.00 0.00 0.00 0.00 0.00 0.00 0.00 0.00 0.00 0.00 0.00 0.00 0.00 0.00 0.00 0.00 0.00 0.00 0.00 0.00 0.00 0.00 0.00 0.00 0.00 0.00 0.00 0.00 0.00 0.00 0.00 0.00 0.00 0.00
0.00 0.00 0.00 0.00 0.00 0.00 0.00 0.00 0.00 0.00 0.00 0.00 0.00 0.00 0.00 0.00 0.00 0.00 0.00 0.00 0.00 0.00 0.00 0.00 0.00 0.00 0.00 0.00 0.00 0.00 0.00 0.00 0.00 0.00 0.00 0.00 0.00 0.00 0.00 0.00 0.00 0.00
0.00 0.00 0.00 0.00 0.00 0.00 0.00 0.00 0.00 0.00 0.00 0.00 0.00 0.00 0.00 0.00 0.00 0.00 0.00 0.00 0.00 0.00 0.00 0.00 0.00 0.00 0.00 0.00 0.00 0.00 0.00 0.00 0.00 0.00 0.00 0.00 0.00 0.00 0.00 0.00 0.00 0.00
0.00 0.00 0.00 0.00 0.00 0.00 0.00 0.00 0.00 0.00 0.00 0.00 0.00 0.00 0.00 0.00 0.00 0.00 0.00 0.00 0.00 0.00 0.00 0.00 0.00 0.00 0.00 0.00 0.00 0.00 0.00 0.00 0.00 0.00 0.00 0.00 0.00 0.00 0.00 0.00 0.00 0.00
0.00 0.00 0.00 0.00 0.00 0.00 0.00 0.00 0.00 0.00 0.00 0.00 0.00 0.00 0.00 0.00 0.00 0.00 0.00 0.00 0.00 0.00 0.00 0.00 0.00 0.00 0.00 0.00 0.00 0.00 0.00 0.00 0.00 0.00 0.00 0.00 0.00 0.00 0.00 0.00 0.00 0.00
0.00 0.00 0.00 0.00 0.00 0.00 0.00 0.00 0.00 0.00 0.00 0.00 0.00 0.00 0.00 0.00 0.00 0.00 0.00 0.00 0.00 0.00 0.00 0.00 0.00 0.00 0.00 0.00 0.00 0.00 0.00 0.00 0.00 0.00 0.00 0.00 0.00 0.00 0.00 0.00 0.00 0.00
0.00 0.00 0.00 0.00 0.00 0.00 0.00 0.00 0.00 0.00 0.00 0.00 0.00 0.00 0.00 0.00 0.00 0.00 0.00 0.00 0.00 0.00 0.00 0.00 0.00 0.00 0.00 0.00 0.00 0.00 0.00 0.00 0.00 0.00 0.00 0.00 0.00 0.00 0.00 0.00 0.00 0.00
0.00 0.00 0.00 0.00 0.00 0.00 0.00 0.00 0.00 0.00 0.00 0.00 0.00 0.00 0.00 0.00 0.00 0.00 0.00 0.00 0.00 0.00 0.00 0.00 0.00 0.00 0.00 0.00 0.00 0.00 0.00 0.00 0.00 0.00 0.00 0.00 0.00 0.00 0.00 0.00 0.00 0.00
0.00 0.00 0.00 0.00 0.00 0.00 0.00 0.00 0.00 0.00 0.00 0.00 0.00 0.00 0.00 0.00 0.00 0.00 0.00 0.00 0.00 0.00 0.00 0.00 0.00 0.00 0.00 0.00 0.00 0.00 0.00 0.00 0.00 0.00 0.00 0.00 0.00 0.00 0.00 0.00 0.00 0.00
0.00 0.00 0.00 0.00 0.00 0.00 0.00 0.00 0.00 0.00 0.00 0.00 0.00 0.00 0.00 0.00 0.00 0.00 0.00 0.00 0.00 0.00 0.00 0.00 0.00 0.00 0.00 0.00 0.00 0.00 0.00 0.00 0.00 0.00 0.00 0.00 0.00 0.00 0.00 0.00 0.00 0.00
0.00 0.00 0.00 0.00 0.00 0.00 0.00 0.00 0.00 0.00 0.00 0.00 0.00 0.00 0.00 0.00 0.00 0.00 0.00 0.00 0.00 0.00 0.00 0.00 0.00 0.00 0.00 0.00 0.00 0.00 0.00 0.00 0.00 0.00 0.00 0.00 0.00 0.00 0.00 0.00 0.00 0.00
0.00 0.00 0.00 0.00 0.00 0.00 0.00 0.00 0.00 0.00 0.00 0.00 0.00 0.00 0.00 0.00 0.00 0.00 0.00 0.00 0.00 0.00 0.00 0.00 0.00 0.00 0.00 0.00 0.00 0.00 0.00 0.00 0.00 0.00 0.00 0.00 0.00 0.00 0.00 0.00 0.00 0.00
0.00 0.00 0.00 0.00 0.00 0.00 0.00 0.00 0.00 0.00 0.00 0.00 0.00 0.00 0.00 0.00 0.00 0.00 0.00 0.00 0.00 0.00 0.00 0.00 0.00 0.00 0.00 0.00 0.00 0.00 0.00 0.00 0.00 0.00 0.00 0.00 0.00 0.00 0.00 0.00 0.00 0.00
0.00 0.00 0.00 0.00 0.00 0.00 0.00 0.00 0.00 0.00 0.00 0.00 0.00 0.00 0.00 0.00 0.00 0.00 0.00 0.00 0.00 0.00 0.00 0.00 0.00 0.00 0.00 0.00 0.00 0.00 0.00 0.00 0.00 0.00 0.00 0.00 0.00 0.00 0.00 0.00 0.00 0.00
0.00 0.00 0.00 0.00 0.00 0.00 0.00 0.00 0.00 0.00 0.00 0.00 0.00 0.00 0.00 0.00 0.00 0.00 0.00 0.00 0.00 0.00 0.00 0.00 0.00 0.00 0.00 0.00 0.00 0.00 0.00 0.00 0.00 0.00 0.00 0.00 0.00 0.00 0.00 0.00 0.00 0.00
0.00 0.00 0.00 0.00 0.00 0.00 0.00 0.00 0.00 0.00 0.00 0.00 0.00 0.00 0.00 0.00 0.00 0.00 0.00 0.00 0.00 0.00 0.00 0.00 0.00 0.00 0.00 0.00 0.00 0.00 0.00 0.00 0.00 0.00 0.00 0.00 0.00 0.00 0.00 0.00 0.00 0.00
0.00 0.00 0.00 0.00 0.00 0.00 0.00 0.00 0.00 0.00 0.00 0.00 0.00 0.00 0.00 0.00 0.00 0.00 0.00 0.00 0.00 0.00 0.00 0.00 0.00 0.00 0.00 0.00 0.00 0.00 0.00 0.00 0.00 0.00 0.00 0.00 0.00 0.00 0.00 0.00 0.00 0.00
0.00 0.00 0.00 0.00 0.00 0.00 0.00 0.00 0.00 0.00 0.00 0.00 0.00 0.00 0.00 0.00 0.00 0.00 0.00 0.00 0.00 0.00 0.00 0.00 0.00 0.00 0.00 0.00 0.00 0.00 0.00 0.00 0.00 0.00 0.00 0.00 0.00 0.00 0.00 0.00 0.00 0.00
0.00 0.00 0.00 0.00 0.00 0.00 0.00 0.00 0.00 0.00 0.00 0.00 0.00 0.00 0.00 0.00 0.00 0.00 0.00 0.00 0.00 0.00 0.00 0.00 0.00 0.00 0.00 0.00 0.00 0.00 0.00 0.00 0.00 0.00 0.00 0.00 0.00 0.00 0.00 0.00 0.00 0.00
0.00 0.00 0.00 0.00 0.00 0.00 0.00 0.00 0.00 0.00 0.00 0.00 0.00 0.00 0.00 0.00 0.00 0.00 0.00 0.00 0.00 0.00 0.00 0.00 0.00 0.00 0.00 0.00 0.00 0.00 0.00 0.00 0.00 0.00 0.00 0.00 0.00 0.00 0.00 0.00 0.00 0.00
0.00 0.00 0.00 0.00 0.00 0.00 0.00 0.00 0.00 0.00 0.00 0.00 0.00 0.00 0.00 0.00 0.00 0.00 0.00 0.00 0.00 0.00 0.00 0.00 0.00 0.00 0.00 0.00 0.00 0.00 0.00 0.00 0.00 0.00 0.00 0.00 0.00 0.00 0.00 0.00 0.00 0.00
0.00 0.00 0.00 0.00 0.00 0.00 0.00 0.00 0.00 0.00 0.00 0.00 0.00 0.00 0.00 0.00 0.00 0.00 0.00 0.00 0.00 0.00 0.00 0.00 0.00 0.00 0.00 0.00 0.00 0.00 0.00 0.00 0.00 0.00 0.00 0.00 0.00 0.00 0.00 0.00 0.00 0.00
MSLP
1013.38 1013.70 1014.10 1014.38 1014.58 1014.66 1014.86 1015.26 1015.42 1015.74 1015.86 1015.86 1016.22 1016.30 1016.34 1016.26 1016.18 1016.34 1016.50 1016.66 1016.94 1017.22 1017.34 1017.42 1017.54 1017.74 1017.82 1017.90 1017.98 1018.18 1018.38 1018.50 1018.50 1018.46 1018.66 1018.82 1019.02 1019.10 1019.22 1019.10 1019.02 1019.10
1013.02 1013.30 1013.62 1013.94 1014.30 1014.38 1014.54 1014.66 1015.02 1015.30 1015.58 1015.58 1015.58 1015.74 1015.82 1015.90 1015.94 1016.02 1016.30 1016.50 1016.66 1016.94 1017.02 1017.22 1017.38 1017.58 1017.74 1017.90 1018.02 1018.30 1018.46 1018.54 1018.78 1018.30 1018.62 1018.78 1018.94 1018.90 1018.98 1018.90 1018.94 1018.74
1012.62 1013.02 1013.38 1013.78 1014.02 1014.22 1014.30 1014.34 1014.58 1014.82 1015.10 1015.14 1015.14 1015.26 1015.50 1015.50 1015.70 1015.78 1015.98 1016.22 1016.46 1016.66 1016.86 1016.98 1017.18 1017.38 1017.58 1017.74 1017.82 1018.14 1018.38 1018.58 1018.74 1018.42 1018.50 1018.74 1018.66 1018.90 1018.86 1018.66 1018.66 1018.70
1012.22 1012.46 1012.78 1013.06 1013.30 1013.70 1013.86 1014.14 1014.38 1014.50 1014.62 1014.98 1015.10 1014.94 1014.98 1015.02 1015.30 1015.62 1015.82 1015.98 1016.30 1016.50 1016.58 1016.78 1017.02 1017.18 1017.38 1017.54 1017.74 1018.02 1018.14 1018.30 1018.34 1018.34 1018.54 1018.50 1018.54 1018.66 1018.70 1018.66 1018.62 1018.54
1011.70 1012.02 1012.26 1012.58 1012.78 1013.06 1013.42 1013.82 1014.02 1014.22 1014.42 1014.46 1014.54 1014.66 1014.82 1014.90 1015.10 1015.38 1015.66 1015.90 1016.06 1016.34 1016.46 1016.62 1016.74 1016.98 1017.10 1017.38 1017.58 1017.98 1017.98 1018.18 1018.14 1018.26 1018.58 1018.70 1018.50 1018.54 1018.62 1018.58 1018.74 1018.86
1011.18 1011.46 1011.74 1012.10 1012.38 1012.74 1013.14 1013.42 1013.54 1013.74 1013.98 1014.18 1014.26 1014.30 1014.50 1014.62 1014.82 1015.02 1015.34 1015.74 1015.86 1016.06 1016.26 1016.38 1016.62 1016.74 1016.86 1017.18 1017.42 1017.70 1017.82 1017.98 1017.94 1018.10 1018.46 1018.70 1018.58 1018.34 1018.38 1018.42 1018.66 1018.90
1010.82 1011.10 1011.38 1011.58 1011.98 1012.18 1012.62 1012.86 1013.02 1013.18 1013.42 1013.58 1013.70 1014.02 1014.10 1014.42 1014.62 1014.74 1014.98 1015.34 1015.62 1015.82 1015.98 1016.18 1016.38 1016.62 1016.66 1016.90 1017.26 1017.58 1017.66 1017.74 1017.70 1017.86 1018.26 1018.42 1018.46 1018.50 1018.22 1018.26 1018.42 1018.62
1010.26 1010.42 1010.78 1011.14 1011.54 1011.78 1012.14 1012.38 1012.62 1012.86 1012.90 1013.18 1013.54 1013.58 1013.66 1014.02 1014.26 1014.34 1014.58 1014.94 1015.34 1015.58 1015.70 1015.82 1016.02 1016.30 1016.42 1016.66 1017.10 1017.42 1017.54 1017.50 1017.70 1017.82 1018.02 1018.22 1018.26 1018.54 1018.38 1018.22 1018.22 1018.46
1009.78 1010.14 1010.38 1010.78 1011.14 1011.34 1011.70 1011.86 1012.10 1012.34 1012.42 1012.86 1013.10 1013.22 1013.26 1013.50 1013.82 1013.98 1014.30 1014.62 1014.98 1015.22 1015.46 1015.58 1015.78 1016.02 1016.14 1016.42 1016.74 1017.06 1017.34 1017.38 1017.34 1017.58 1017.82 1018.06 1018.26 1018.30 1018.26 1018.14 1018.34 1018.38
1009.42 1009.70 1010.06 1010.38 1010.74 1010.82 1011.10 1011.22 1011.46 1011.78 1011.98 1012.34 1012.62 1012.74 1013.02 1013.14 1013.30 1013.62 1013.98 1014.38 1014.74 1014.98 1015.18 1015.34 1015.54 1015.74 1015.94 1016.06 1016.38 1016.62 1016.94 1017.14 1017.14 1017.22 1017.38 1017.58 1017.78 1017.94 1017.98 1018.06 1018.18 1018.38
1008.86 1009.10 1009.62 1009.90 1010.14 1010.22 1010.50 1010.66 1010.90 1011.22 1011.46 1011.86 1012.14 1012.42 1012.50 1012.82 1013.14 1013.26 1013.74 1014.10 1014.42 1014.66 1014.90 1015.10 1015.22 1015.42 1015.70 1015.82 1015.90 1016.06 1016.38 1016.66 1016.86 1016.98 1017.06 1017.18 1017.30 1017.46 1017.54 1017.70 1017.86 1018.02
1008.30 1008.58 1008.94 1009.22 1009.46 1009.66 1009.94 1010.14 1010.34 1010.70 1011.06 1011.34 1011.58 1012.02 1012.10 1012.34 1012.86 1013.06 1013.38 1013.78 1013.94 1014.14 1014.38 1014.62 1014.78 1015.02 1015.30 1015.46 1015.54 1015.66 1015.94 1016.18 1016.42 1016.66 1016.78 1016.86 1016.94 1017.06 1017.18 1017.26 1017.46 1017.54
1007.70 1007.90 1008.18 1008.54 1008.86 1009.06 1009.22 1009.62 1009.94 1010.18 1010.50 1010.90 1011.02 1011.38 1011.74 1012.02 1012.34 1012.78 1012.94 1013.26 1013.54 1013.74 1013.98 1014.22 1014.46 1014.62 1014.90 1015.10 1015.22 1015.30 1015.54 1015.86 1016.10 1016.30 1016.46 1016.58 1016.62 1016.70 1016.74 1016.82 1016.94 1017.06
1006.90 1007.06 1007.50 1007.86 1008.18 1008.46 1008.78 1009.06 1009.38 1009.66 1009.94 1010.26 1010.62 1011.06 1011.34 1011.50 1011.86 1012.38 1012.62 1012.86 1013.14 1013.38 1013.54 1013.74 1014.10 1014.34 1014.54 1014.74 1014.86 1015.02 1015.22 1015.50 1015.74 1015.94 1016.14 1016.30 1016.34 1016.38 1016.38 1016.46 1016.50 1016.58
1006.22 1006.58 1006.90 1007.38 1007.78 1008.18 1008.50 1008.74 1008.98 1009.26 1009.50 1009.82 1010.26 1010.66 1010.78 1010.98 1011.10 1011.58 1012.26 1012.62 1012.78 1013.02 1013.26 1013.42 1013.74 1013.98 1014.10 1014.34 1014.66 1014.82 1014.86 1015.10 1015.34 1015.58 1015.78 1016.02 1016.14 1016.14 1016.14 1016.18 1016.18 1016.10
1005.86 1006.14 1006.54 1006.94 1007.46 1007.90 1008.18 1008.38 1008.62 1008.90 1009.22 1009.58 1009.94 1010.22 1010.50 1010.70 1010.86 1011.06 1011.62 1012.14 1012.54 1012.78 1012.98 1013.18 1013.34 1013.38 1013.50 1013.74 1014.02 1014.34 1014.62 1014.70 1014.86 1015.14 1015.38 1015.58 1015.86 1016.02 1015.98 1015.90 1015.86 1015.82
1005.62 1005.98 1006.26 1006.78 1006.98 1007.34 1007.74 1008.06 1008.30 1008.54 1008.94 1009.30 1009.62 1009.90 1010.22 1010.50 1010.70 1010.94 1011.18 1011.54 1011.98 1012.34 1012.74 1012.86 1012.86 1012.82 1013.06 1013.46 1013.74 1013.98 1014.22 1014.46 1014.66 1014.86 1014.98 1015.22 1015.46 1015.70 1015.94 1015.78 1015.58 1015.46
1005.26 1005.62 1006.02 1006.38 1006.66 1007.06 1007.34 1007.62 1007.94 1008.30 1008.70 1009.02 1009.30 1009.66 1009.90 1010.10 1010.50 1010.66 1010.78 1011.06 1011.46 1011.82 1012.14 1012.34 1012.38 1012.30 1012.66 1013.10 1013.46 1013.74 1013.94 1014.10 1014.26 1014.50 1014.62 1014.86 1015.06 1015.22 1015.34 1015.42 1015.46 1015.30
1004.98 1005.34 1005.70 1006.02 1006.26 1006.50 1006.86 1007.30 1007.74 1008.06 1008.38 1008.70 1009.02 1009.10 1009.46 1009.98 1010.22 1010.42 1010.66 1010.62 1010.94 1011.46 1011.74 1011.78 1011.94 1011.90 1012.34 1012.66 1013.06 1013.42 1013.66 1013.86 1013.98 1014.10 1014.34 1014.46 1014.58 1014.78 1014.94 1015.06 1015.14 1015.22
1004.70 1005.02 1005.38 1005.58 1005.82 1006.22 1006.62 1007.06 1007.46 1007.82 1007.90 1008.06 1008.42 1008.78 1009.26 1009.62 1009.86 1010.22 1010.34 1010.50 1010.58 1010.90 1011.22 1011.30 1011.46 1011.54 1012.02 1012.38 1012.66 1012.98 1013.26 1013.58 1013.66 1013.82 1013.94 1014.02 1014.14 1014.26 1014.42 1014.62 1014.74 1014.94
1004.50 1004.78 1005.10 1005.38 1005.62 1005.94 1006.38 1006.74 1007.06 1007.34 1007.62 1007.78 1008.06 1008.50 1009.02 1009.42 1009.66 1009.98 1010.10 1010.22 1010.30 1010.42 1010.78 1010.98 1010.90 1011.10 1011.70 1012.06 1012.38 1012.70 1012.90 1013.26 1013.38 1013.54 1013.66 1013.74 1013.74 1013.78 1013.90 1014.06 1014.22 1014.34
1004.10 1004.54 1004.82 1005.10 1005.42 1005.74 1006.14 1006.54 1006.78 1007.02 1007.34 1007.38 1007.70 1007.98 1008.30 1008.74 1009.14 1009.38 1009.74 1009.98 1009.98 1010.14 1010.38 1010.70 1010.46 1010.74 1011.22 1011.70 1012.02 1012.34 1012.66 1013.14 1013.26 1013.54 1013.66 1013.66 1013.62 1013.54 1013.54 1013.54 1013.58 1013.82
1003.62 1004.10 1004.54 1004.82 1005.10 1005.54 1005.86 1006.14 1006.46 1006.82 1007.02 1007.02 1007.54 1007.74 1008.18 1008.54 1008.90 1009.14 1009.30 1009.62 1009.86 1009.98 1010.22 1010.34 1010.26 1010.54 1010.86 1011.26 1011.62 1011.94 1012.66 1012.98 1013.14 1013.30 1013.46 1013.62 1013.62 1013.46 1013.38 1013.34 1013.30 1013.38
1003.10 1003.62 1004.18 1004.54 1004.86 1005.22 1005.46 1005.66 1005.90 1006.18 1006.54 1006.58 1007.22 1007.54 1007.86 1008.02 1008.34 1008.78 1008.94 1009.10 1009.42 1009.66 1009.74 1010.18 1010.06 1010.26 1010.62 1010.94 1011.22 1011.74 1012.06 1012.46 1012.70 1013.06 1013.26 1013.42 1013.50 1013.38 1013.34 1013.34 1013.18 1013.14
1002.66 1003.18 1003.70 1004.14 1004.54 1004.78 1004.98 1005.42 1005.66 1005.90 1006.06 1006.30 1006.66 1006.98 1007.26 1007.38 1007.78 1008.38 1008.66 1008.74 1008.78 1009.02 1009.22 1009.66 1009.70 1010.06 1010.38 1010.66 1011.22 1011.62 1011.86 1011.90 1012.30 1012.74 1013.22 1013.34 1013.38 1013.46 1013.26 1013.22 1013.14 1012.98
1002.26 1002.82 1003.22 1003.66 1004.14 1004.46 1004.66 1005.02 1005.26 1005.66 1005.94 1006.22 1006.46 1006.62 1006.98 1007.10 1007.42 1007.90 1008.38 1008.46 1008.38 1008.54 1008.86 1009.06 1009.34 1009.58 1010.10 1010.46 1010.86 1011.38 1011.50 1011.50 1011.90 1012.54 1013.02 1013.06 1013.02 1013.14 1013.30 1013.14 1012.94 1012.86
Thickness
5820 5819 5818 5816 5816 5816 5815 5814 5814 5812 5812 5813 5812 5812 5813 5814 5816 5815 5814 5813 5812 5810 5810 5810 5809 5808 5808 5808 5808 5807 5806 5806 5806 5807 5806 5804 5803 5804 5803 5804 5805 5805
5822 5822 5820 5819 5818 5817 5818 5817 5817 5815 5815 5815 5817 5816 5817 5817 5818 5817 5816 5815 5814 5812 5812 5811 5811 5810 5809 5809 5808 5807 5806 5806 5806 5807 5807 5806 5805 5805 5805 5805 5806 5806
5824 5824 5822 5821 5821 5820 5820 5820 5819 5819 5818 5818 5819 5820 5820 5820 5820 5819 5818 5817 5816 5815 5814 5813 5812 5811 5810 5810 5810 5809 5807 5806 5806 5808 5808 5807 5807 5806 5807 5808 5808 5809
5826 5826 5826 5825 5825 5823 5823 5822 5821 5821 5821 5820 5821 5822 5823 5823 5822 5821 5819 5819 5817 5816 5815 5815 5814 5813 5812 5812 5811 5809 5809 5809 5808 5810 5809 5808 5810 5808 5808 5809 5809 5809
5830 5829 5829 5828 5828 5827 5826 5825 5823 5823 5823 5822 5823 5824 5824 5824 5824 5822 5820 5820 5819 5817 5817 5817 5815 5815 5814 5814 5813 5811 5810 5810 5811 5811 5808 5808 5810 5810 5810 5810 5809 5809
5832 5832 5832 5831 5830 5830 5828 5828 5827 5827 5826 5825 5826 5826 5826 5825 5825 5824 5822 5821 5820 5819 5818 5818 5817 5817 5817 5815 5814 5812 5812 5812 5812 5812 5809 5808 5810 5811 5812 5811 5809 5808
5834 5834 5834 5833 5833 5832 5831 5830 5830 5830 5829 5829 5829 5828 5828 5827 5826 5826 5825 5823 5822 5821 5821 5821 5819 5818 5818 5817 5815 5814 5814 5814 5814 5813 5811 5810 5810 5811 5812 5813 5812 5810
5837 5837 5836 5836 5835 5834 5834 5833 5833 5833 5833 5832 5831 5831 5831 5830 5828 5829 5828 5826 5824 5823 5823 5822 5822 5821 5820 5819 5816 5815 5815 5814 5815 5814 5812 5811 5810 5810 5811 5813 5812 5812
5838 5838 5838 5838 5837 5837 5837 5836 5835 5835 5836 5834 5833 5834 5834 5833 5832 5831 5830 5828 5827 5825 5825 5825 5823 5823 5822 5821 5819 5817 5816 5816 5816 5816 5814 5812 5811 5811 5812 5813 5812 5811
5840 5840 5839 5839 5839 5840 5840 5839 5839 5839 5838 5837 5836 5836 5837 5835 5835 5834 5832 5830 5828 5827 5826 5826 5825 5825 5824 5823 5822 5820 5818 5817 5817 5818 5817 5816 5814 5814 5814 5814 5812 5812
5843 5842 5842 5841 5842 5843 5843 5842 5842 5842 5840 5840 5838 5838 5839 5837 5836 5835 5834 5831 5830 5829 5828 5828 5827 5827 5825 5825 5825 5824 5823 5821 5820 5819 5819 5819 5818 5817 5816 5815 5814 5813
5845 5845 5844 5845 5845 5846 5846 5845 5845 5844 5842 5842 5841 5840 5840 5839 5837 5836 5835 5833 5832 5832 5831 5830 5830 5829 5828 5828 5827 5827 5826 5824 5822 5821 5821 5821 5820 5819 5819 5818 5817 5816
5848 5849 5848 5848 5848 5848 5848 5847 5846 5846 5845 5844 5844 5843 5842 5841 5839 5837 5836 5836 5834 5834 5833 5832 5832 5832 5831 5830 5830 5830 5828 5826 5825 5824 5823 5823 5822 5822 5822 5821 5820 5819
5853 5852 5852 5850 5850 5849 5849 5849 5848 5848 5848 5847 5846 5844 5844 5844 5842 5839 5838 5837 5836 5836 5836 5835 5833 5833 5833 5833 5832 5832 5831 5829 5827 5826 5825 5824 5823 5823 5824 5823 5822 5822
5856 5855 5854 5852 5851 5849 5849 5849 5850 5849 5849 5848 5847 5845 5845 5846 5845 5843 5840 5838 5837 5837 5837 5837 5836 5836 5836 5835 5834 5833 5833 5831 5830 5828 5827 5825 5824 5824 5825 5825 5824 5825
5858 5856 5855 5853 5851 5850 5850 5850 5850 5850 5849 5849 5848 5846 5846 5846 5846 5846 5843 5840 5839 5838 5837 5838 5838 5839 5839 5838 5836 5835 5834 5833 5832 5831 5829 5827 5826 5825 5824 5825 5826 5826
5858 5857 5855 5853 5852 5851 5850 5851 5850 5850 5849 5849 5848 5847 5846 5846 5846 5846 5845 5843 5841 5839 5839 5839 5841 5842 5841 5839 5838 5836 5835 5835 5833 5832 5831 5830 5827 5826 5825 5826 5827 5828
5859 5858 5856 5853 5853 5852 5851 5851 5850 5850 5849 5848 5848 5848 5847 5846 5845 5845 5846 5845 5843 5842 5841 5841 5843 5844 5843 5840 5838 5837 5836 5836 5835 5834 5833 5831 5830 5829 5827 5827 5828 5828
5859 5858 5856 5855 5854 5854 5852 5851 5850 5849 5849 5849 5849 5849 5847 5846 5846 5845 5846 5846 5845 5843 5842 5843 5844 5845 5844 5841 5839 5838 5837 5836 5836 5835 5834 5833 5832 5831 5830 5829 5828 5828
5859 5858 5857 5855 5855 5853 5852 5851 5850 5849 5850 5850 5850 5849 5847 5845 5845 5845 5845 5845 5846 5845 5843 5844 5845 5845 5844 5842 5839 5839 5838 5837 5837 5837 5835 5835 5835 5834 5832 5831 5830 5829
5860 5858 5857 5856 5855 5854 5852 5851 5850 5850 5850 5850 5850 5849 5847 5846 5845 5845 5844 5844 5846 5846 5844 5844 5846 5846 5844 5841 5840 5839 5838 5837 5837 5836 5835 5835 5835 5835 5835 5834 5833 5832
5861 5859 5857 5856 5855 5854 5852 5851 5850 5850 5850 5850 5850 5849 5848 5847 5845 5845 5845 5844 5845 5846 5845 5844 5846 5847 5844 5841 5840 5839 5837 5836 5836 5835 5834 5834 5834 5835 5836 5836 5836 5834
5863 5860 5858 5857 5855 5854 5852 5852 5851 5850 5850 5850 5848 5847 5847 5846 5845 5845 5845 5844 5843 5844 5844 5844 5845 5846 5844 5842 5841 5839 5837 5835 5835 5834 5833 5832 5832 5834 5835 5836 5836 5835
5865 5862 5859 5857 5856 5855 5854 5853 5852 5851 5850 5851 5848 5847 5847 5847 5846 5845 5845 5845 5844 5844 5844 5844 5844 5845 5844 5842 5841 5838 5837 5837 5835 5834 5832 5831 5831 5832 5833 5834 5835 5836
5866 5863 5861 5859 5857 5856 5855 5854 5852 5851 5851 5850 5849 5847 5847 5848 5847 5844 5843 5845 5846 5845 5845 5844 5843 5844 5843 5841 5839 5837 5837 5838 5836 5833 5830 5829 5829 5829 5830 5832 5834 5835
5866 5864 5861 5860 5858 5856 5856 5854 5852 5851 5850 5848 5849 5848 5847 5847 5847 5845 5842 5844 5846 5846 5845 5845 5844 5844 5842 5840 5838 5836 5836 5837 5836 5832 5829 5828 5828 5828 5829 5830 5833 5834